sat.trackr.live / text

‹ back to catalog

HORIZONS-2

NORAD 32388 · 2007-063B

PAYLOAD ACTIVE UNKNOWN

§ Identity

Operator
Country
ITSO
Launch date
2007-12-21
Launch site
FRGUI
Launch vehicle
Mass (kg)
RCS (m²)
17.32

Purposes: comms

External: N2YO · Heavens-Above · Gunter

§ Orbital elements

Epoch: 2026-05-25T03:23:33.091008Z

Period
1,436.09 min
Inclination
2.5451°
Eccentricity
0.0003914
Mean motion
1.00272558 rev/d
Perigee alt
35,769.9 km
Apogee alt
35,802.9 km
Semi-major
42,164.5 km
B*
0.0000e+0
RAAN
80.8981°
Arg perigee
343.5585°
Mean anomaly
155.3825°
Rev number
6,758

§ Raw data

HORIZONS-21 32388U 07063B   26145.14135522 -.00000255  00000+0  00000+0 0  99922 32388   2.5451  80.8981 0003914 343.5585 155.3825  1.00272558 67582

JSON: /api/v1/satellites/32388 · /tle

For live sub-satellite position, see the globe view (requires WebGL).

§ Visibility from observer

Set your observer location to see the next 7 days of passes ≥ 10°. The values pass through the URL so the page stays shareable.

No JS? Fill the form by hand. The geolocation button needs JavaScript.